Flag for U.S.A. Weather past 2 weeks in Pittsburgh, Pennsylvania, U.S.A.

Now
63 °F

Overcast.


Feels Like: 63 °F
Forecast: 63 / 77 °F
Wind: 7 mph from South

Location: Allegheny County Airport

Current Time: Jun 30, 2015 at 5:24:35 AM

Latest Report: Jun 30, 2015 at 4:53 AM


Visibility: 10 mi

Pressure: 29.83 "Hg

Humidity: 87%

Dew point: 59 °F

Location of PittsburghLocation

Historic Weather in Pittsburgh — Graph

°F

Pittsburgh temperature yesterday

Maximum temperature yesterday: 76 °F (at 1:53 PM)
Minimum temperature yesterday: 54 °F (at 5:53 AM)
Average temperature yesterday: 63 °F

Past Weeks' High & Low Weather Summary

 TemperatureHumidityPressure
High84 °F (Jun 21, 3:53 PM)91% (Jun 20, 5:53 AM)30.15 "Hg (Jun 20, 5:53 AM)
Low54 °F (Jun 29, 5:53 AM)39% (Jun 24, 1:53 PM)29.63 "Hg (Jun 27, 6:53 PM)
Average70 °F72%29.96 "Hg
* Reported Jun 15 4:53 AM — Jun 30 4:04 AM, Pittsburgh, Weather by CustomWeather, © 2015

Note: Actual official high and low records may vary slightly from our data, if they occured in-between our weather recording intervals... More about our weather records

Advertising

Pittsburgh weather history for previous 24 hours

 ConditionsComfort  
Time TempWeatherWind HumidityBarometerVisibility
4:04 AM
Tue, Jun 30
63 °FPartly cloudy.7 mph84%29.83 "Hg10 mi
3:53 AM63 °FPassing clouds.7 mph84%29.82 "Hg10 mi
2:53 AM62 °FPassing clouds.5 mph86%29.83 "Hg10 mi
1:53 AM62 °FLight rain. Fog.9 mph86%29.84 "Hg6 mi
12:53 AM61 °FFog.3 mph87%29.85 "Hg6 mi
11:53 PM
Mon, Jun 29
61 °FLight rain. Overcast.3 mph87%29.87 "Hg7 mi
10:53 PM62 °FPartly cloudy.9 mph78%29.86 "Hg10 mi
9:53 PM62 °FOvercast.7 mph80%29.87 "Hg10 mi
8:53 PM63 °FRain. Mostly cloudy.5 mph81%29.89 "Hg3 mi
7:53 PM66 °FRain. Overcast.5 mph75%29.90 "Hg5 mi
6:53 PM66 °FOvercast.5 mph75%29.89 "Hg10 mi
5:53 PM67 °FMostly cloudy.3 mph76%29.90 "Hg10 mi
4:53 PM68 °FOvercast.3 mph68%29.92 "Hg10 mi
3:53 PM70 °FLight rain. Mostly cloudy.5 mph55%29.94 "Hg9 mi
2:53 PM72 °FPartly sunny.6 mph44%29.94 "Hg10 mi
1:53 PM76 °FPassing clouds.9 mph39%29.94 "Hg10 mi
12:53 PM74 °FSunny.8 mph40%29.95 "Hg10 mi
11:53 AM72 °FPassing clouds.6 mph52%29.96 "Hg10 mi
10:53 AM70 °FSunny.5 mph59%29.97 "Hg10 mi
9:53 AM66 °FSunny.3 mph63%29.99 "Hg10 mi
8:53 AM62 °FSunny.No wind70%29.98 "Hg10 mi
7:53 AM58 °FSunny.No wind78%29.97 "Hg10 mi
6:53 AM54 °FSunny.7 mph83%29.95 "Hg10 mi
5:53 AM54 °FClear.3 mph80%29.93 "Hg10 mi
Weather by CustomWeather, © 2015

See weather overviewHow to use our weather pages